Location: Ravensburg
(48.5621°N, 13.4088°E)
Time: 21:35:34
(UTC+02:00)

ISS - Visible Passes

Search period start: 25 September 2020 00:00
Search period end: 05 October 2020 00:00
Orbit: 419 x 420 km, 51.6° (Epoch: 26 September)

Date Brightness Start Highest point End Pass type
(mag) Time Alt. Az. Time Alt. Az. Time Alt. Az.
25 Sep -3.5 19:21:38 10° WSW 19:25:00 71° NNW 19:28:23 10° ENE visible
25 Sep -3.1 20:58:48 10° WNW 21:02:05 48° N 21:02:08 48° N visible
26 Sep -3.0 20:11:20 10° WNW 20:14:37 48° N 20:16:31 22° ENE visible
26 Sep -1.0 21:48:19 10° WNW 21:49:28 20° WNW 21:49:28 20° WNW visible
27 Sep -3.1 19:23:50 10° W 19:27:09 51° N 19:30:27 10° ENE visible
27 Sep -3.1 21:00:54 10° WNW 21:03:50 53° NNW 21:03:50 53° NNW visible
28 Sep -3.3 20:13:28 10° WNW 20:16:48 51° N 20:18:11 29° ENE visible
28 Sep -0.8 21:50:21 10° WNW 21:51:09 16° WNW 21:51:09 16° WNW visible
29 Sep -3.1 19:26:00 10° WNW 19:29:17 48° N 19:32:33 10° E visible
29 Sep -2.9 21:02:55 10° WNW 21:05:30 50° WNW 21:05:30 50° WNW visible
30 Sep -3.8 20:15:28 10° WNW 20:18:51 73° NNE 20:19:53 41° E visible
30 Sep -0.5 21:52:31 10° W 21:52:51 12° W 21:52:51 12° W visible
01 Oct -3.5 19:28:01 10° WNW 19:31:23 59° NNE 19:34:17 13° E visible
01 Oct -2.2 21:04:56 10° WNW 21:07:15 33° WSW 21:07:15 33° WSW visible
02 Oct -3.5 20:17:25 10° WNW 20:20:45 61° SSW 20:21:42 40° SSE visible
03 Oct -3.7 19:29:56 10° WNW 19:33:19 85° SSW 19:36:12 14° ESE visible
03 Oct -1.3 21:07:18 10° W 21:09:10 18° SW 21:09:10 18° SW visible
04 Oct -2.1 20:19:30 10° W 20:22:27 28° SW 20:23:45 21° S visible
